Location: Br�ttisellen
(47.4227°N, 8.6287°E)
Time: 09:04:53
(UTC+00:00)

ARGOS - Pass Details

Date: 09 April 2020
Orbit: 820 x 834 km, 98.5° (Epoch: 24 May)

Event Time Altitude Azimuth Distance (km) Brightness Sun altitude
Rises 19:22:24 0° 176° (S) 3,357 6.0 -12.8°
Reaches altitude 10° 19:24:47 10° 181° (S) 2,426 5.3 -13.2°
Maximum altitude 19:30:04 57° 259° (W) 970 3.8 -13.9°
Drops below altitude 10° 19:35:23 10° 338° (NNW) 2,434 6.4 -14.7°
Sets 19:37:47 0° 343° (NNW) 3,370 7.1 -15.1°
